Location: Mount Wilson Observatory
(34.2257°N, 118.0571°W)
Time: 05:27:16
(UTC-07:00)

ATLAS 3B CENTAUR R/B - Visible Passes

Search period start: 28 July 2016 00:00
Search period end: 07 August 2016 00:00
Orbit: 223 x 6601 km, 28.1° (Epoch: 28 July)

Date Brightness Start Highest point End Pass type
(mag) Time Alt. Az. Time Alt. Az. Time Alt. Az.
28 Jul 4.4 00:47:42 58° SE 00:47:42 58° SE 01:10:52 10° E visible
28 Jul 5.5 03:28:22 18° W 03:42:42 71° S 04:25:09 10° ESE visible
29 Jul 4.3 00:53:28 60° SE 00:53:28 60° SE 01:16:54 10° E visible
29 Jul 5.5 03:34:06 17° W 03:48:40 69° S 04:30:51 10° ESE visible
30 Jul 4.3 00:59:06 62° SE 00:59:06 62° SE 01:22:41 10° E visible
30 Jul 5.5 03:39:42 16° W 03:54:24 67° S 04:36:14 10° ESE visible
31 Jul 4.3 01:04:36 63° SE 01:04:36 63° SE 01:28:13 10° E visible
31 Jul 5.5 03:45:13 16° W 03:59:56 65° SSW 04:41:18 10° ESE visible
01 Aug 4.3 01:10:00 63° SE 01:10:00 63° SE 01:33:30 10° E visible
01 Aug 5.5 03:50:37 16° W 04:05:13 62° SSW 04:46:03 10° SE visible
02 Aug 4.3 01:15:18 62° SE 01:15:18 62° SE 01:38:31 10° E visible
02 Aug 5.5 03:55:54 16° W 04:10:18 59° SSW 04:50:30 10° SE visible
03 Aug 4.4 01:20:31 61° SE 01:20:31 61° SE 01:43:16 10° ESE visible
03 Aug 5.5 04:01:05 17° W 04:15:10 56° SSW 04:54:37 10° SE visible
04 Aug 4.4 01:25:36 58° SE 01:25:36 58° SE 01:47:45 10° ESE visible
04 Aug 5.4 04:06:10 18° W 04:19:49 53° SSW 04:58:25 10° SE visible
05 Aug 4.5 01:30:35 55° SE 01:30:35 55° SE 01:51:57 10° ESE visible
05 Aug 5.4 04:11:08 19° W 04:24:16 49° SSW 05:01:53 10° SE visible
06 Aug 4.7 01:35:27 51° SE 01:35:27 51° SE 01:55:53 10° ESE visible
06 Aug 5.4 04:15:59 20° WSW 04:28:31 46° SSW 05:05:02 10° SE visible
